Weather History for Joplin, MO

Change the Weather History Date:

Thursday, August 21, 2014

  Actual Average Record
Temperature  
Mean Temperature 87 °F 80 °F  
Max Temperature 97 °F 91 °F 102 °F (2003)
Min Temperature 77 °F 68 °F 46 °F (1950)
Degree Days  
Heating Degree Days 0 0  
Month to date heating degree days 0 0  
Since 1 June heating degree days 3 5  
Since 1 July heating degree days 1 0  
Cooling Degree Days 22 15  
Month to date cooling degree days 283 326  
Year to date cooling degree days 1129 1297  
Since 1 June cooling degree days 916 1117  
Growing Degree Days 37 (Base 50)    
Moisture  
Dew Point 69 °F    
Average Humidity 58    
Maximum Humidity 74    
Minimum Humidity 42    
Precipitation  
Precipitation 0.00 in 0.11 in 1.43 in (1972)
Month to date precipitation 1.49 2.15  
Year to date precipitation 15.41 29.77  
Sea Level Pressure  
Sea Level Pressure 29.94 in    
Wind  
Wind Speed 15 mph (South)    
Max Wind Speed 23 mph    
Max Gust Speed 30 mph    
Visibility 10 miles    
Events      
T = Trace of Precipitation, MM = Missing Value Source: NWS Daily Summary

Daily Weather History Graph

Daily Weather History Graph

Search for Another Location

Airport:

Trip Planner

Search our weather history database for the weather conditions in past years. The results will help you decide how hot, cold, wet, or windy it might be!

Date:

Astronomy

Aug. 21, 2014 Rise Set
Actual Time 6:39 AM CDT 8:01 PM CDT
Civil Twilight 6:12 AM CDT 8:29 PM CDT
Nautical Twilight 5:39 AM CDT 9:01 PM CDT
Astronomical Twilight 5:05 AM CDT 9:35 PM CDT
Moon 3:12 AM CDT (8/21) 5:29 PM CDT (8/21)
Length of Visible Light 14h 16m
Length of Day
13h 22m
Waning Crescent, 13% of the Moon is Illuminated
Aug 21
Waning Crescent
Aug 25
New
Sep 2
First Quarter
Sep 8
Full
Sep 15
Last Quarter

Hourly Weather History & Observations

Time (CDT) Temp. Heat Index Dew Point Humidity Pressure Visibility Wind Dir Wind Speed Gust Speed Precip Events Conditions
12:53 AM 79.0 °F - 66.9 °F 66% 29.93 in 10.0 mi South 13.8 mph - N/A   Clear
1:53 AM 78.1 °F - 68.0 °F 71% 29.93 in 10.0 mi South 12.7 mph - N/A   Clear
2:53 AM 78.1 °F - 68.0 °F 71% 29.92 in 10.0 mi South 12.7 mph - N/A   Clear
3:53 AM 78.1 °F - 68.0 °F 71% 29.92 in 10.0 mi South 12.7 mph - N/A   Clear
4:53 AM 78.1 °F - 69.1 °F 74% 29.93 in 10.0 mi South 17.3 mph - N/A   Clear
5:53 AM 78.1 °F - 69.1 °F 74% 29.94 in 10.0 mi South 17.3 mph - N/A   Clear
6:53 AM 78.1 °F - 69.1 °F 74% 29.94 in 10.0 mi South 17.3 mph 24.2 mph N/A   Clear
7:53 AM 78.1 °F - 70.0 °F 76% 29.96 in 10.0 mi South 15.0 mph - N/A   Clear
8:53 AM 82.0 °F 85.9 °F 70.0 °F 67% 29.96 in 10.0 mi South 17.3 mph 24.2 mph N/A   Clear
9:53 AM 84.9 °F 90.1 °F 71.1 °F 63% 29.97 in 10.0 mi SSW 18.4 mph 26.5 mph N/A   Clear
10:53 AM 88.0 °F 93.8 °F 71.1 °F 57% 29.97 in 10.0 mi SW 18.4 mph - N/A   Clear
11:53 AM 91.9 °F 98.4 °F 71.1 °F 50% 29.97 in 10.0 mi SSW 19.6 mph - N/A   Clear
12:53 PM 93.9 °F 100.8 °F 71.1 °F 47% 29.95 in 10.0 mi SSW 13.8 mph - N/A   Clear
1:53 PM 96.1 °F 103.5 °F 71.1 °F 44% 29.95 in 10.0 mi SSW 18.4 mph 23.0 mph N/A   Clear
2:53 PM 96.1 °F 101.6 °F 69.1 °F 41% 29.93 in 10.0 mi South 15.0 mph - N/A   Partly Cloudy
3:53 PM 95.0 °F 101.3 °F 70.0 °F 44% 29.91 in 10.0 mi South 15.0 mph 23.0 mph N/A   Scattered Clouds
4:53 PM 95.0 °F 100.7 °F 69.1 °F 43% 29.90 in 10.0 mi South 16.1 mph 23.0 mph N/A   Partly Cloudy
5:53 PM 93.0 °F 97.4 °F 68.0 °F 44% 29.90 in 10.0 mi South 17.3 mph 26.5 mph N/A   Clear
6:53 PM 91.0 °F 94.3 °F 66.9 °F 45% 29.91 in 8.0 mi South 17.3 mph - N/A   Clear
7:53 PM 87.1 °F 91.3 °F 69.1 °F 55% 29.92 in 10.0 mi South 12.7 mph - N/A   Clear
8:53 PM 84.9 °F 89.4 °F 70.0 °F 61% 29.92 in 10.0 mi South 12.7 mph - N/A   Clear
9:53 PM 82.9 °F 87.0 °F 70.0 °F 65% 29.94 in 10.0 mi South 15.0 mph - N/A   Clear
10:53 PM 82.0 °F 85.9 °F 70.0 °F 67% 29.96 in 10.0 mi South 13.8 mph - N/A   Clear
11:53 PM 81.0 °F 84.9 °F 71.1 °F 72% 29.94 in 10.0 mi South 15.0 mph - N/A   Clear